GW6217 Weather Reports


time (UTC)temp
C
wind
direction
speed
KPH
gust
KPH
rain 1hr
cm
rain 24hr
cm
rain mn
cm
humidity
%
barometer
mb
20260510193026 21 219 6.4 19.3 0.00 0.00 0.00 45 1020.4
20260510191512 21 117 1.6 17.7 0.00 0.00 0.00 49 1020.5
20260510190015 20 181 8.0 22.5 0.00 0.00 0.00 48 1020.7
20260510184528 20 105 3.2 16.1 0.00 0.00 0.00 50 1020.6
20260510183004 20 93 3.2 16.1 0.00 0.00 0.00 49 1020.3
20260510181508 20 165 6.4 19.3 0.00 0.00 0.00 49 1020.4
20260510180018 19 133 6.4 19.3 0.00 0.00 0.00 52 1020.1
20260510174503 19 226 11.3 22.5 0.00 0.00 0.00 49 1020.2
20260510173002 19 262 8.0 19.3 0.00 0.00 0.00 50 1020.2
20260510171505 19 92 4.8 17.7 0.00 0.00 0.00 52 1020.1
20260510170011 18 120 6.4 16.1 0.00 0.00 0.00 56 1019.9
20260510164517 18 231 9.7 22.5 0.00 0.00 0.00 53 1020.1
20260510163005 18 233 8.0 20.9 0.00 0.00 0.00 55 1020.0
20260510161506 17 219 6.4 19.3 0.00 0.00 0.00 55 1019.7
20260510160009 17 108 3.2 17.7 0.00 0.00 0.00 55 1019.6
20260510154513 17 196 6.4 20.9 0.00 0.00 0.00 55 1019.4
20260510153019 17 224 8.0 20.9 0.00 0.00 0.00 61 1019.4
20260510151505 17 234 11.3 27.4 0.00 0.00 0.00 60 1019.6
20260510150006 17 143 11.3 22.5 0.00 0.00 0.00 60 1019.7
20260510144515 16 163 8.0 22.5 0.00 0.00 0.00 64 1019.7
20260510143024 16 129 8.0 25.7 0.00 0.00 0.00 66 1019.4
20260510141522 16 214 14.5 24.1 0.00 0.00 0.00 65 1019.1
20260510140003 16 236 11.3 20.9 0.00 0.00 0.00 70 1018.9
20260510134509 16 200 8.0 19.3 0.00 0.00 0.00 70 1018.7
20260510133017 16 191 4.8 14.5 0.00 0.00 0.00 75 1018.5
20260510131517 16 238 6.4 20.9 0.00 0.00 0.00 77 1018.2
20260510130026 15 207 4.8 16.1 0.00 0.00 0.00 78 1017.8
20260510124504 15 209 4.8 14.5 0.00 0.00 0.00 80 1017.6
20260510123009 15 227 6.4 14.5 0.00 0.00 0.00 81 1017.4
20260510121515 14 115 6.4 12.9 0.00 0.00 0.00 82 1017.4
20260510120021 13 198 3.2 8.0 0.00 0.00 0.00 83 1017.3
20260510114526 13 207 3.2 6.4 0.00 0.00 0.00 82 1016.8
20260510113008 13 231 4.8 9.7 0.00 0.00 0.00 82 1016.5
20260510111511 13 101 1.6 4.8 0.00 0.00 0.00 84 1016.3
20260510110031 14 147 1.6 3.2 0.00 0.00 0.00 84 1015.9
20260510104524 14 176 3.2 6.4 0.00 0.00 0.00 83 1016.1
20260510103028 14 174 1.6 8.0 0.00 0.00 0.00 83 1016.0
20260510101508 13 131 0.0 6.4 0.00 0.00 0.00 84 1015.8
20260510100016 12 80 0.0 0.0 0.00 0.00 0.00 88 1015.4
20260510094519 12 80 0.0 0.0 0.00 0.00 0.00 88 1015.4
20260510093004 12 80 0.0 0.0 0.00 0.00 0.00 88 1015.1
20260510091509 12 80 0.0 0.0 0.00 0.00 0.00 88 1015.2
20260510090019 12 80 0.0 0.0 0.00 0.00 0.00 87 1014.9
20260510084505 12 80 0.0 0.0 0.00 0.00 0.00 87 1014.5
20260510083005 12 80 0.0 0.0 0.00 0.00 0.00 87 1014.4
20260510081504 12 80 0.0 0.0 0.00 0.03 0.00 87 1014.7
20260510080010 12 80 0.0 0.0 0.00 0.03 0.00 87 1014.7
20260510074514 12 80 0.0 0.0 0.00 0.03 0.00 86 1014.5
20260510073004 11 80 0.0 1.6 0.00 0.03 0.00 87 1014.5
20260510071506 11 80 0.0 1.6 0.00 0.03 0.00 87 1014.6
20260510070004 12 80 0.0 1.6 0.00 0.03 0.00 86 1014.5
20260510064511 12 80 0.0 1.6 0.00 0.03 0.00 85 1014.6
20260510063016 12 80 0.0 3.2 0.00 0.03 0.00 84 1014.5
20260510061505 13 109 0.0 0.0 0.00 0.03 0.00 81 1014.4
20260510060005 13 109 0.0 1.6 0.00 0.03 0.00 82 1014.6
20260510054511 14 109 0.0 0.0 0.00 0.03 0.00 80 1014.5
20260510053015 14 109 0.0 6.4 0.00 0.03 0.00 79 1014.8
20260510051520 12 95 1.6 3.2 0.00 0.03 0.00 87 1014.2
20260510050005 12 95 0.0 1.6 0.00 0.03 0.00 87 1013.8
20260510044505 12 95 0.0 0.0 0.00 0.03 0.03 87 1013.8
20260510043010 12 95 0.0 0.0 0.00 0.03 0.03 86 1013.7
20260510041519 12 95 0.0 0.0 0.00 0.03 0.03 86 1013.3
20260510040020 12 95 0.0 1.6 0.00 0.03 0.03 85 1013.3
20260510034505 12 95 0.0 1.6 0.00 0.03 0.03 85 1013.4
20260510033007 13 95 0.0 0.0 0.00 0.03 0.03 85 1013.2
20260510031514 13 95 0.0 1.6 0.00 0.03 0.03 84 1013.3
20260510030033 13 95 0.0 1.6 0.00 0.03 0.03 83 1013.1
20260510024525 14 95 0.0 0.0 0.00 0.03 0.03 82 1012.8
20260510023006 15 95 0.0 1.6 0.00 0.03 0.03 80 1012.2
20260510021515 15 95 0.0 0.0 0.00 0.03 0.03 78 1012.2
20260510020021 16 95 0.0 0.0 0.00 0.03 0.03 77 1011.9
20260510014522 17 95 0.0 1.6 0.00 0.03 0.03 72 1011.6
20260510013025 18 95 0.0 1.6 0.00 0.03 0.03 71 1011.4
20260510011511 20 95 0.0 1.6 0.00 0.03 0.03 68 1011.2
20260510010014 21 95 0.0 0.0 0.00 0.03 0.03 63 1011.0
20260510004518 23 95 0.0 0.0 0.00 0.03 0.03 55 1010.9
20260510003016 23 95 0.0 0.0 0.00 0.03 0.03 54 1010.8
20260510001504 25 95 0.0 1.6 0.00 0.03 0.03 48 1010.8
20260510000009 26 95 0.0 0.0 0.00 0.03 0.03 41 1010.7
20260509234503 26 95 0.0 1.6 0.00 0.03 0.03 41 1010.7
20260509233003 26 95 1.6 6.4 0.00 0.03 0.03 38 1010.7
20260509231505 26 81 1.6 4.8 0.00 0.03 0.03 36 1010.7
20260509230011 27 73 4.8 8.0 0.00 0.03 0.03 35 1010.6
20260509224511 27 88 4.8 9.7 0.00 0.03 0.03 37 1010.6
20260509223004 27 37 3.2 9.7 0.00 0.03 0.03 32 1010.7
20260509221503 27 106 4.8 9.7 0.00 0.03 0.03 35 1010.7
20260509220004 27 103 1.6 6.4 0.00 0.03 0.03 36 1010.6
20260509214508 26 104 1.6 8.0 0.00 0.03 0.03 39 1010.7
20260509213014 27 110 0.0 6.4 0.00 0.03 0.03 41 1010.6
20260509211505 26 107 3.2 14.5 0.00 0.03 0.03 36 1010.7
20260509210004 26 122 1.6 12.9 0.00 0.03 0.03 36 1010.9
20260509204508 26 106 3.2 11.3 0.00 0.03 0.03 34 1011.0
20260509203017 26 102 3.2 9.7 0.00 0.03 0.03 39 1011.2
20260509201518 26 112 8.0 17.7 0.00 0.03 0.03 38 1011.4
20260509200004 26 100 4.8 17.7 0.00 0.03 0.03 38 1011.5
20260509194503 26 60 4.8 12.9 0.00 0.03 0.03 40 1011.6